This is the latest recevied weather packets stored in our database for station/object VK3XEM-13. If no packets are shown the sender has not sent any weather packets the latest 10 day(s).
| Time | Temp. | Humidity | Pressure | Rain* | Wind** | Luminosity | Snow |
|---|---|---|---|---|---|---|---|
| 1778043734 | 16.11° C | 60% | 1014.4 hPa | 0 mm | - | 92 W/m² | - |
| 1778042835 | 16.11° C | 60% | 1014.4 hPa | 0 mm | - | 117 W/m² | - |
| 1778041934 | 15.56° C | 61% | 1014.8 hPa | 0 mm | - | 150 W/m² | - |
| 1778041035 | 16.11° C | 60% | 1014.8 hPa | 0 mm | - | 182 W/m² | - |
| 1778040135 | 17.22° C | 57% | 1014.8 hPa | 0 mm | - | 187 W/m² | - |
| 1778039234 | 15.56° C | 61% | 1015.1 hPa | 0 mm | - | 253 W/m² | - |
| 1778038334 | 16.11° C | 60% | 1015.4 hPa | 0 mm | - | 249 W/m² | - |
| 1778037434 | 15.56° C | 61% | 1015.8 hPa | 0 mm | - | 319 W/m² | - |
| 1778036534 | 15.56° C | 62% | 1016.1 hPa | 0 mm | - | 379 W/m² | - |
| 1778035634 | 15° C | 62% | 1016.1 hPa | 0 mm | - | 225 W/m² | - |
| 1778034735 | 15° C | 62% | 1016.5 hPa | 0 mm | - | 200 W/m² | - |
| 1778033835 | 15° C | 62% | 1016.8 hPa | 0 mm | - | 149 W/m² | - |
| 1778032934 | 15° C | 61% | 1017.1 hPa | 0 mm | - | 126 W/m² | - |
| 1778032035 | 15° C | 61% | 1017.1 hPa | 0 mm | - | 129 W/m² | - |
| 1778031135 | 15° C | 61% | 1017.5 hPa | 0 mm | - | 140 W/m² | - |
| 1778030234 | 14.44° C | 61% | 1017.8 hPa | 0 mm | - | 173 W/m² | - |
| 1778029334 | 14.44° C | 60% | 1017.8 hPa | 0 mm | - | 144 W/m² | - |
| 1778028434 | 14.44° C | 60% | 1017.8 hPa | 0 mm | - | 203 W/m² | - |
| 1778027535 | 14.44° C | 61% | 1018.1 hPa | 0 mm | - | 200 W/m² | - |
| 1778026635 | 14.44° C | 63% | 1018.5 hPa | 0 mm | - | 166 W/m² | - |
| 1778025734 | 13.89° C | 65% | 1018.5 hPa | 0 mm | - | 146 W/m² | - |
| 1778024834 | 13.89° C | 66% | 1018.5 hPa | 0 mm | - | 117 W/m² | - |
| 1778023934 | 13.33° C | 66% | 1018.5 hPa | 0 mm | - | 99 W/m² | - |
| 1778023034 | 13.33° C | 67% | 1018.5 hPa | 0 mm | - | 90 W/m² | - |
| 1778022134 | 13.33° C | 68% | 1018.5 hPa | 0 mm | - | 91 W/m² | - |
* Rain latest hour (hover to see other rain measurements)
** Current wind speed in m/s (hover to see current wind gust speed)